IRIDIUM 94

Last updated on Wed Nov 29 2017 00:19:03 GMT+0000 (Coordinated Universal Time)

1 27374U 02005C 17332.11546583 .00000107 00000-0 31265-4 0 9998 2 27374 86.3979 187.2142 0001365 97.4695 63.7342 14.34217234839441
UTC large
Height (km)
Speed (km/s)
/
Latitude / Longitude
Inclination (degrees)
Orbital Period (minutes)
Azimuth
Elevation
Range (km)
Doppler Factor

Next 0 passes for location: London (51.5072 / 0.1276)

Sorry there are no passes over London.